Simultaneous Nadir Overpasses (SNOs) Predictions

Prediction of SNOs between NOAA-20 and TERRA Satellite Orbit:

Table of predicted SNOs for the next 14.0 days since TLE Epoch: 9/7/2024
Index Date (NOAA-20) Time (NOAA-20) Lat,Lon (NOAA-20) SZA (NOAA-20 ) Date (TERRA) Time (TERRA) Lat,Lon (TERRA) SZA (TERRA ) Distance(km) Time Diff (sec)
1 09/07/2024 18:54:21 -72.60, 68.30 113.00 09/07/2024 18:55:21 -72.60, 68.29 113.01 0.55 60
2 09/07/2024 19:45:05 72.53,-124.23 66.94 09/07/2024 19:44:42 72.52,-124.19 66.93 1.62 23
3 09/10/2024 06:06:49 -72.97,-100.55 111.68 09/10/2024 06:08:00 -72.83, -99.50 111.87 37.62 71
4 09/10/2024 06:57:26 72.54, 67.65 67.88 09/10/2024 06:57:25 72.53, 67.60 67.86 2.33 1
5 09/10/2024 07:48:04 -72.22,-124.40 112.46 09/10/2024 07:46:52 -72.25,-125.23 112.38 28.12 72
6 09/12/2024 18:09:46 72.58,-100.51 68.85 09/12/2024 18:10:05 72.55,-100.56 68.82 3.36 19
7 09/12/2024 19:00:29 -72.51, 66.94 111.22 09/12/2024 18:59:28 -72.50, 67.00 111.22 2.22 61
8 09/15/2024 05:22:06 72.58, 91.40 69.79 09/15/2024 05:22:44 72.59, 91.31 69.80 3.27 38
9 09/15/2024 06:12:49 -72.51,-101.15 110.28 09/15/2024 06:12:08 -72.50,-101.21 110.29 2.52 41
10 09/17/2024 16:34:27 72.65, -76.84 70.81 09/17/2024 16:35:21 72.65, -76.78 70.80 2.00 54
11 09/17/2024 17:25:10 -72.58, 90.62 109.26 09/17/2024 17:24:45 -72.56, 90.71 109.28 3.58 25
12 09/20/2024 03:46:47 72.69, 114.99 71.80 09/20/2024 03:47:57 72.68, 115.08 71.77 3.23 70
13 09/20/2024 04:37:29 -72.57, -77.44 108.32 09/20/2024 04:37:21 -72.59, -77.42 108.30 2.61 8



Historial Predications of SNOs between NOAA-20 and TERRA
